This demonstration page uses our WeatherBlox Daily Observations layout. Learn more.

Left ArrowRight Arrow

Hourly Observations for September 25, 2019

Temp ( °F °C ) Dew Point ( °F °C ) Humidity (%) Winds ( mph kmh ) Pressure ( in mb ) Visibility ( mi km ) Precip ( " mm )
12:54 am 00:54 Clear 67 19.4 60 15.6 79 79 N 6 9 29.74 1007 10 16 0.00 0.00
1:54 am 01:54 Clear 63 17.2 58 14.4 84 84 N 5 7 29.75 1007 10 16 0.00 0.00
2:54 am 02:54 Clear 59 15 56 13.3 90 90 N 5 7 29.75 1007 10 16 0.00 0.00
3:54 am 03:54 Clear 60 15.6 57 13.9 90 90 N 3 6 29.77 1008 10 16 0.00 0.00
4:54 am 04:54 Clear 59 15 56 13.3 90 90 N 9 15 29.80 1009 10 16 0.00 0.00
5:54 am 05:54 Clear 56 13.3 53 11.7 90 90 NNW 5 7 29.84 1010 10 16 0.00 0.00
6:54 am 06:54 Clear 55 12.8 52 11.1 90 90 Calm 29.86 1011 10 16 0.00 0.00
7:54 am 07:54 Sunny 57 13.9 53 11.7 87 87 N 3 6 29.86 1011 10 16 0.00 0.00
8:54 am 08:54 Sunny 62 16.7 56 13.3 80 80 N 3 6 29.88 1012 10 16 0.00 0.00
9:54 am 09:54 Sunny 69 20.6 57 13.9 66 66 N 8 13 29.89 1012 10 16 0.00 0.00
10:54 am 10:54 Sunny 73 22.8 53 11.7 50 50 N 6 9 29.90 1013 10 16 0.00 0.00
11:54 am 11:54 Sunny 77 25 52 11.1 42 42 NNW 7 11 29.91 1013 10 16 0.00 0.00
12:54 pm 12:54 Sunny 77 25 52 11.1 42 42 N 12 19 29.91 1013 10 16 0.00 0.00
1:54 pm 13:54 Mostly Cloudy 76 24.4 49 9.4 39 39 N 10 17 29.91 1013 10 16 0.00 0.00
2:54 pm 14:54 Partly Cloudy 77 25 50 10 39 39 N 15 24 29.91 1013 10 16 0.00 0.00
3:54 pm 15:54 Cloudy 75 23.9 45 7.2 34 34 N 14 22 29.93 1014 10 16 0.00 0.00
4:54 pm 16:54 Sunny 74 23.3 43 6.1 33 33 N 15 24 29.92 1013 10 16 0.00 0.00
5:54 pm 17:54 Partly Cloudy 72 22.2 42 5.6 34 34 N 16 26 29.96 1015 10 16 0.00 0.00
6:54 pm 18:54 Cloudy 67 19.4 44 6.7 44 44 N 10 17 29.99 1016 10 16 0.00 0.00
7:54 pm 19:54 Mostly Clear 60 15.6 47 8.3 62 62 N 8 13 30.01 1016 10 16 0.00 0.00
8:54 pm 20:54 Mostly Clear 59 15 46 7.8 62 62 N 7 11 30.03 1017 10 16 0.00 0.00
9:54 pm 21:54 Clear 60 15.6 46 7.8 60 60 NNW 7 11 30.04 1017 10 16 0.00 0.00
10:54 pm 22:54 Clear 56 13.3 48 8.9 75 75 N 3 6 30.06 1018 10 16 0.00 0.00
11:54 pm 23:54 Mostly Clear 52 11.1 47 8.3 83 83 NNW 3 6 30.05 1018 10 16 0.00 0.00

Powered by AerisWeather